SCP
-0 0 -0 -0 -0 -0 -0 0 -0 -0 -0 -0 0 0 0 -0 -0 -0 -0 -0 -0 -0 -0 0 -0 -0 -0 -0 -0 -0 -0 -0 -0 -0 -0 -0 -0 -0 0 0 0 0 0
-0 0 -0 -0 -0 -0 0 0 0 0 0 -0 0 0 0 -0 -0 -0 -0 -0 -0 0 -0 -0 -0 -0 -0 -0 -0 -0 -0 -0 -0 -0 -0 0 0 0 0 0 0 0 0
-0 0 0 -0 -0 -0 -0 0 0 -0 0 0 -0 0 0 -0 -0 -0 -0 0 -0 0 -0 -0 -0 -0 -0 -0 -0 -0 0 -0 0 0 0 0 0 0 0 0 0 0 0
0 0 0 -0 -0 -0 -0 -0 -0 -0 -0 -0 -0 -0 -0 -0 -0 -0 -0 0 0 -0 -0 -0 -0 -0 -0 -0 -0 0 0 0 -0 0 0 0 0 0 0 0 0 0 0
0 0 0 -0 -0 -0 -0 -0 -0 0 0 -0 -0 -0 -0 -0 -0 -0 -0 0 0 -0 -0 -0 -0 -0 -0 -0 -0 -0 -0 -0 0 0 0 0 0 0 0 0 0 0 0
0 0 0 -0 -0 -0 -0 -0 0 0 -0 -0 -0 0 -0 -0 -0 -0 -0 0 -0 -0 -0 -0 -0 -0 -0 -0 -0 -0 -0 -0 0 0 0 0 0 0 0 0 0 0 0
0 0 0 0 -0 -0 -0 -0 -0 -0 -0 -0 -0 0 -0 -0 -0 -0 -0 -0 -0 -0 -0 -0 -0 -0 -0 0 -0 0 0 0 0 0 0 0 0 0 0 0 0 0 0
-0 0 0 0 0 0 0 -0 -0 -0 -0 -0 -0 -0 -0 -0 -0 -0 -0 -0 -0 -0 -0 -0 -0 -0 -0 0 -0 -0 0 0 0 0 0 0 0 0 0 0 0 0 0
-0 -0 0 0 0 0 0 0 0 0 -0 -0 -0 -0 -0 -0 -0 0 0 -0 -0 -0 -0 -0 -0 -0 -0 0 0 0 0 0 0 0 0 0 0 0 0 0 0 0 0
-0 -0 0 0 0 0 0 0 0 0 -0 -0 -0 0 0 0 0 0 0 -0 -0 -0 -0 -0 -0 -0 -0 0 0 0 0 0 0 0 0 0 0 0 0 0 0 0 0
0 0 -0 0 0 0 0 0 0 0 0 0 0 0 0 0 0 0 0 -0 -0 -0 -0 -0 -0 -0 0 0 0 0 0 0 0 0 0 0 0 0 0 0 0 0 0
0 0 0 0 0 0 0 0 0 0 0 0 0 0 0 0 0 0 0 0 -0 -0 -0 -0 -0 0 0 0 0 0 0 0 0 0 0 0 0 0 0 0 0 0 0
0 0 0 0 0 0 0 0 0 0 0 0 0 0 0 0 0 0 0 0 0 0 0 0 0 0 0 0 0 0 0 0 0 0 0 0 0 0 0 0 0 0 0
0 0 0 0 0 0 0 0 0 0 0 0 0 0 0 0 0 0 0 0 0 0 0 0 0 0 0 0 0 0 0 0 0 0 0 0 0 0 0 0 0 0 0
0 0 0 0 0 0 0 0 0 0 0 0 0 0 0 0 0 0 0 0 0 0 0 0 0 0 0 0 0 0 0 0 0 0 0 0 0 0 0 0 0 0 0
0 0 0 0 0 0 0 0 0 0 0 0 0 0 0 0 0 0 0 0 0 0 0 0 0 0 0 0 0 0 0 0 0 0 0 0 0 0 0 0 0 0 0
0 0 0 0 0 0 0 0 0 0 0 0 0 0 0 0 0 0 0 0 0 0 0 0 0 0 0 0 0 0 0 0 0 0 0 0 0 0 0 0 0 0 0
0 0 0 0 0 0 0 0 0 0 0 0 0 0 0 0 0 0 0 0 0 0 0 0 0 0 0 0 0 0 0 0 0 0 0 0 0 0 0 0 0 0 0
0 0 0 0 0 0 0 0 0 0 0 0 0 0 0 0 0 0 0 0 0 0 0 0 0 0 0 0 0 0 0 0 0 0 0 0 0 0 0 0 0 0 0
0 0 0 0 0 0 0 0 0 0 0 0 0 0 0 0 0 0 0 0 0 0 0 0 0 0 0 0 0 0 0 0 0 0 0 0 0 0 0 0 0 0 0
0 0 0 0 0 0 0 0 0 0 0 0 0 0 0 0 0 0 0 0 0 0 0 0 0 0 0 0 0 0 0 0 0 0 0 0 0 0 0 0 0 0 0
0 0 0 0 0 0 0 0 0 0 0 0 0 0 0 0 0 0 0 0 0 0 0 0 0 0 0 0 0 0 0 0 0 0 0 0 0 0 0 0 0 0 0
0 0 0 0 0 0 0 0 0 0 0 0 0 0 0 0 0 0 0 0 0 0 0 0 0 0 0 0 0 0 0 0 0 0 0 0 0 0 0 0 0 0 0
0 0 0 0 0 0 0 0 0 0 0 0 0 0 0 0 0 0 0 0 0 0 0 0 0 0 0 0 0 0 0 0 0 0 0 0 0 0 0 0 0 0 0
0 0 0 0 0 0 0 0 0 0 0 0 0 0 0 0 0 0 0 0 0 0 0 0 0 0 0 0 0 0 0 0 0 0 0 0 0 0 0 0 0 0 0
0 0 0 0 0 0 0 0 0 0 0 0 0 0 0 0 0 0 0 0 0 0 0 0 0 0 0 0 0 0 0 0 0 0 0 0 0 0 0 0 0 0 0
Wind_Speed_500mb
16 19 22 21 25 22 26 28 21 17 15 15 15 19 19 24 28 23 23 20 24 31 27 30 31 31 36 37 39 42 44 41 37 40 38 39 37 38 38 38 39 36 40
18 22 25 20 23 23 22 18 15 11 8 12 15 19 25 32 27 21 24 31 26 31 30 31 30 30 33 39 40 43 44 43 38 37 37 36 36 34 34 35 31 35 37
18 23 26 26 23 22 18 15 9 6 6 12 17 21 24 28 28 20 24 27 29 30 33 29 31 34 36 37 40 44 41 33 26 28 30 36 36 34 32 32 31 32 29
23 26 25 28 25 23 18 11 6 7 9 14 16 19 24 23 21 20 23 23 29 28 28 29 32 34 34 34 37 33 32 24 14 16 26 33 32 30 28 29 29 29 26
26 28 26 27 25 22 15 9 8 8 13 17 17 24 26 19 22 19 26 22 26 25 25 28 31 30 30 30 31 28 23 20 13 12 30 26 25 25 26 30 32 30 26
19 24 28 27 25 20 14 11 7 7 9 14 16 26 27 21 26 19 22 22 21 23 24 26 27 28 26 26 26 23 24 22 19 18 26 27 29 25 29 23 22 19 20
20 21 28 29 25 20 17 13 7 6 13 16 18 23 24 24 25 19 18 20 19 20 21 22 24 23 23 22 22 21 19 20 26 27 26 20 22 18 19 18 19 19 20
20 21 29 30 28 22 18 15 8 7 13 18 20 20 25 22 23 18 21 21 19 19 19 20 20 19 19 19 19 19 17 18 18 19 23 20 18 18 14 16 17 17 18
23 20 31 30 31 27 21 17 11 8 13 19 19 20 20 20 22 19 17 20 18 18 17 17 15 15 15 15 16 15 12 13 10 11 15 17 16 17 18 18 15 15 15
24 23 31 32 31 30 28 23 15 11 8 15 18 19 16 14 15 19 17 16 16 15 14 13 12 12 12 12 11 10 7 7 4 6 11 14 15 18 19 19 16 14 11
30 26 25 32 33 31 29 27 23 18 15 15 19 20 19 18 18 16 15 14 13 12 13 11 9 8 8 9 8 4 2 3 4 8 11 13 16 17 19 19 19 15 8
38 34 28 33 37 33 34 33 30 26 20 19 18 22 22 22 19 17 15 14 14 14 13 12 9 7 6 6 6 2 3 5 7 12 11 13 16 17 18 18 18 12 3
38 38 38 36 33 36 37 39 37 32 28 26 24 24 27 26 22 19 17 15 16 16 15 14 12 11 9 8 3 3 7 9 10 13 17 18 17 17 17 17 16 10 8
45 39 45 43 38 45 42 42 41 38 34 32 31 31 30 25 23 23 20 20 20 19 19 17 16 14 12 9 10 10 11 11 14 17 19 20 19 18 16 16 16 13 12
47 42 47 48 44 44 49 45 39 41 35 34 34 33 36 33 26 27 26 27 25 23 23 21 18 17 14 12 12 11 12 14 15 16 19 20 21 18 16 14 15 16 12
46 45 44 50 50 50 49 49 43 43 40 36 37 38 39 39 32 32 31 29 28 26 25 22 20 20 19 16 12 13 14 16 17 19 21 22 20 18 14 13 13 17 14
47 44 48 49 53 55 54 50 48 48 48 45 44 44 43 42 39 35 33 32 28 28 28 26 26 26 23 20 17 15 16 15 16 17 19 19 16 15 13 11 13 14 15
52 55 51 52 54 57 59 57 55 53 56 51 48 47 45 44 42 40 37 36 32 32 33 31 30 29 27 24 21 18 19 20 20 19 19 15 15 17 15 12 11 12 14
53 61 61 59 59 58 59 57 56 57 58 54 51 50 48 45 45 44 41 39 37 37 38 34 33 33 31 26 24 22 23 23 24 24 21 15 10 11 14 10 10 12 16
53 59 66 64 63 62 61 61 60 61 62 58 56 54 52 49 47 48 47 45 44 43 41 39 38 37 33 28 29 30 30 29 29 24 14 13 13 8 11 10 12 15 19
58 57 64 71 70 69 73 73 72 72 68 67 64 60 58 54 51 51 51 50 51 50 44 42 41 41 38 34 35 37 35 33 30 20 15 10 12 11 15 14 16 19 21
69 67 65 69 74 76 77 78 77 73 71 69 67 66 63 61 58 57 56 55 56 55 51 50 49 46 42 40 42 34 28 30 29 14 18 14 12 16 17 19 23 26 30
72 75 70 69 76 79 79 81 80 79 78 77 79 74 74 68 66 64 62 61 62 63 61 56 54 51 48 44 47 38 14 16 15 18 17 19 18 24 25 29 29 30 33
63 76 76 70 69 79 82 84 84 89 89 87 84 80 78 75 73 71 70 69 70 70 70 64 58 55 54 54 51 53 51 46 22 16 19 15 19 28 32 34 36 32 36
80 69 76 81 78 71 84 85 88 90 93 93 89 87 82 78 78 78 78 75 78 76 75 70 66 63 62 62 59 58 53 49 46 48 54 43 35 29 32 33 30 29 38
72 86 80 75 85 83 86 89 94 92 92 97 97 94 89 83 80 84 84 83 82 80 80 76 71 69 69 67 66 61 63 57 56 55 56 54 48 40 34 34 35 36 35
Wind_Direction_500mb
162 152 139 126 118 114 118 120 116 110 97 76 78 97 95 113 104 90 99 123 104 98 112 101 99 91 90 86 82 82 76 65 77 82 81 81 79 77 70 63 64 53 64
157 156 144 139 127 126 124 124 124 114 92 80 88 102 93 91 88 88 89 99 101 103 103 105 101 100 91 88 86 82 78 65 57 68 77 77 71 69 71 70 70 68 60
167 160 151 152 139 133 136 137 129 120 102 86 97 112 107 105 117 103 95 103 101 102 101 104 106 100 95 94 92 87 81 81 61 52 65 71 66 60 60 63 74 75 69
166 159 158 155 153 150 148 148 127 102 106 103 101 116 111 114 108 108 98 99 103 107 107 106 105 100 102 101 97 89 81 81 77 52 64 67 62 61 55 54 59 71 70
168 164 162 163 163 155 156 147 120 93 126 121 122 128 123 123 118 107 111 106 109 111 112 105 104 105 104 101 101 97 88 80 60 75 72 69 60 57 46 47 50 53 50
170 169 167 169 169 166 162 153 124 86 122 120 124 135 126 126 124 122 122 112 118 116 111 107 108 105 107 106 102 92 75 56 50 73 76 71 55 40 47 43 43 46 42
173 176 176 170 174 175 170 162 143 117 131 123 125 134 129 129 135 132 130 129 123 118 118 115 110 111 111 107 103 90 73 71 50 56 56 65 59 48 44 35 41 35 27
195 180 183 176 174 182 180 173 156 125 137 137 138 146 145 146 144 146 140 138 135 131 124 117 115 115 114 109 106 100 86 77 52 41 38 37 51 32 26 26 29 22 34
207 194 190 190 179 182 182 189 174 167 160 157 151 157 163 153 157 162 147 146 143 137 131 123 123 121 116 111 108 108 104 87 100 28 17 25 25 27 25 24 22 22 35
208 196 199 196 197 188 183 190 194 203 179 165 162 162 167 168 153 168 169 162 152 149 134 134 134 132 121 115 111 113 103 93 68 3 7 12 11 11 12 15 6 8 27
211 205 195 200 200 202 199 195 204 216 203 182 180 175 176 184 185 179 181 176 165 164 158 155 153 146 136 131 118 108 89 54 354 347 346 355 357 357 1 3 0 19 70
206 202 197 201 203 204 209 206 209 210 210 204 195 195 194 195 198 192 194 194 187 189 183 184 182 183 183 182 156 107 337 353 316 329 339 341 344 345 348 353 1 34 23
216 204 202 206 205 200 208 212 213 216 219 212 206 208 207 203 208 205 207 208 209 207 206 206 209 218 230 245 255 311 312 328 299 313 321 328 333 334 335 339 348 359 313
214 215 211 212 214 201 208 213 216 222 227 224 214 213 223 219 219 217 221 220 222 221 221 221 225 238 247 269 279 290 297 302 301 302 308 314 324 324 323 323 331 341 310
216 219 213 216 215 209 208 214 215 222 228 225 218 213 226 232 231 231 225 227 227 228 232 229 233 245 259 262 262 277 293 300 303 300 305 313 318 316 314 309 318 320 309
215 218 218 216 219 214 219 219 224 224 226 233 234 227 227 234 235 236 234 232 230 229 234 237 243 252 257 263 271 287 295 299 306 311 312 313 312 311 308 298 299 300 303
229 221 223 221 218 220 223 228 226 228 233 236 235 232 232 234 235 235 238 241 239 239 239 240 244 252 259 269 277 280 289 297 308 317 320 313 310 318 315 295 298 294 294
230 229 228 226 224 223 223 225 229 228 234 238 237 235 235 236 238 238 239 241 241 240 242 242 244 251 257 262 268 274 284 292 301 309 312 313 308 323 319 306 293 293 295
235 231 233 231 228 228 226 228 229 232 235 237 236 238 239 238 238 241 242 242 242 241 241 243 246 250 254 259 267 273 279 287 293 301 304 302 292 320 325 316 310 298 295
240 235 238 239 234 230 229 229 229 231 234 236 238 238 240 240 238 241 241 241 242 241 243 244 245 248 253 259 263 268 275 285 287 290 282 278 273 294 300 294 299 302 297
241 235 239 240 238 232 229 227 227 230 233 236 237 238 239 240 239 240 241 241 243 245 247 249 248 248 252 255 258 265 273 277 284 269 252 235 278 276 287 292 299 303 303
247 240 239 243 244 239 235 234 234 236 239 242 243 240 240 241 241 240 242 243 245 247 245 244 245 248 250 248 253 264 278 281 283 251 225 254 262 285 284 303 306 306 304
247 239 239 247 247 245 241 237 235 236 240 239 240 242 242 242 242 243 244 244 245 247 246 248 248 248 253 251 250 248 243 249 254 253 237 230 247 264 276 299 298 299 302
252 246 243 244 249 251 246 241 238 239 239 244 245 246 246 246 245 245 246 245 246 246 246 248 249 250 252 251 250 249 251 253 262 278 258 257 266 270 295 297 298 295 290
255 248 246 244 246 251 248 248 245 241 245 247 248 249 249 249 249 248 247 246 246 245 247 249 249 248 251 253 252 255 254 248 252 252 273 272 274 279 284 291 292 283 284
256 256 251 245 245 248 252 249 246 246 246 245 246 249 251 249 249 247 246 246 246 248 248 250 252 251 251 253 256 252 251 245 243 242 255 268 276 282 279 277 273 282 284
Wind_Speed_850mb
16 19 22 21 25 22 26 28 21 17 15 15 15 19 19 24 28 23 23 20 24 31 27 30 31 31 36 37 39 42 44 41 37 40 38 39 37 38 38 38 39 36 40
18 22 25 20 23 23 22 18 15 11 8 12 15 19 25 32 27 21 24 31 26 31 30 31 30 30 33 39 40 43 44 43 38 37 37 36 36 34 34 35 31 35 37
18 23 26 26 23 22 18 15 9 6 6 12 17 21 24 28 28 20 24 27 29 30 33 29 31 34 36 37 40 44 41 33 26 28 30 36 36 34 32 32 31 32 29
23 26 25 28 25 23 18 11 6 7 9 14 16 19 24 23 21 20 23 23 29 28 28 29 32 34 34 34 37 33 32 24 14 16 26 33 32 30 28 29 29 29 26
26 28 26 27 25 22 15 9 8 8 13 17 17 24 26 19 22 19 26 22 26 25 25 28 31 30 30 30 31 28 23 20 13 12 30 26 25 25 26 30 32 30 26
19 24 28 27 25 20 14 11 7 7 9 14 16 26 27 21 26 19 22 22 21 23 24 26 27 28 26 26 26 23 24 22 19 18 26 27 29 25 29 23 22 19 20
20 21 28 29 25 20 17 13 7 6 13 16 18 23 24 24 25 19 18 20 19 20 21 22 24 23 23 22 22 21 19 20 26 27 26 20 22 18 19 18 19 19 20
20 21 29 30 28 22 18 15 8 7 13 18 20 20 25 22 23 18 21 21 19 19 19 20 20 19 19 19 19 19 17 18 18 19 23 20 18 18 14 16 17 17 18
23 20 31 30 31 27 21 17 11 8 13 19 19 20 20 20 22 19 17 20 18 18 17 17 15 15 15 15 16 15 12 13 10 11 15 17 16 17 18 18 15 15 15
24 23 31 32 31 30 28 23 15 11 8 15 18 19 16 14 15 19 17 16 16 15 14 13 12 12 12 12 11 10 7 7 4 6 11 14 15 18 19 19 16 14 11
30 26 25 32 33 31 29 27 23 18 15 15 19 20 19 18 18 16 15 14 13 12 13 11 9 8 8 9 8 4 2 3 4 8 11 13 16 17 19 19 19 15 8
38 34 28 33 37 33 34 33 30 26 20 19 18 22 22 22 19 17 15 14 14 14 13 12 9 7 6 6 6 2 3 5 7 12 11 13 16 17 18 18 18 12 3
38 38 38 36 33 36 37 39 37 32 28 26 24 24 27 26 22 19 17 15 16 16 15 14 12 11 9 8 3 3 7 9 10 13 17 18 17 17 17 17 16 10 8
45 39 45 43 38 45 42 42 41 38 34 32 31 31 30 25 23 23 20 20 20 19 19 17 16 14 12 9 10 10 11 11 14 17 19 20 19 18 16 16 16 13 12
47 42 47 48 44 44 49 45 39 41 35 34 34 33 36 33 26 27 26 27 25 23 23 21 18 17 14 12 12 11 12 14 15 16 19 20 21 18 16 14 15 16 12
46 45 44 50 50 50 49 49 43 43 40 36 37 38 39 39 32 32 31 29 28 26 25 22 20 20 19 16 12 13 14 16 17 19 21 22 20 18 14 13 13 17 14
47 44 48 49 53 55 54 50 48 48 48 45 44 44 43 42 39 35 33 32 28 28 28 26 26 26 23 20 17 15 16 15 16 17 19 19 16 15 13 11 13 14 15
52 55 51 52 54 57 59 57 55 53 56 51 48 47 45 44 42 40 37 36 32 32 33 31 30 29 27 24 21 18 19 20 20 19 19 15 15 17 15 12 11 12 14
53 61 61 59 59 58 59 57 56 57 58 54 51 50 48 45 45 44 41 39 37 37 38 34 33 33 31 26 24 22 23 23 24 24 21 15 10 11 14 10 10 12 16
53 59 66 64 63 62 61 61 60 61 62 58 56 54 52 49 47 48 47 45 44 43 41 39 38 37 33 28 29 30 30 29 29 24 14 13 13 8 11 10 12 15 19
58 57 64 71 70 69 73 73 72 72 68 67 64 60 58 54 51 51 51 50 51 50 44 42 41 41 38 34 35 37 35 33 30 20 15 10 12 11 15 14 16 19 21
69 67 65 69 74 76 77 78 77 73 71 69 67 66 63 61 58 57 56 55 56 55 51 50 49 46 42 40 42 34 28 30 29 14 18 14 12 16 17 19 23 26 30
72 75 70 69 76 79 79 81 80 79 78 77 79 74 74 68 66 64 62 61 62 63 61 56 54 51 48 44 47 38 14 16 15 18 17 19 18 24 25 29 29 30 33
63 76 76 70 69 79 82 84 84 89 89 87 84 80 78 75 73 71 70 69 70 70 70 64 58 55 54 54 51 53 51 46 22 16 19 15 19 28 32 34 36 32 36
80 69 76 81 78 71 84 85 88 90 93 93 89 87 82 78 78 78 78 75 78 76 75 70 66 63 62 62 59 58 53 49 46 48 54 43 35 29 32 33 30 29 38
72 86 80 75 85 83 86 89 94 92 92 97 97 94 89 83 80 84 84 83 82 80 80 76 71 69 69 67 66 61 63 57 56 55 56 54 48 40 34 34 35 36 35
Wind_Direction_850mb
162 152 139 126 118 114 118 120 116 110 97 76 78 97 95 113 104 90 99 123 104 98 112 101 99 91 90 86 82 82 76 65 77 82 81 81 79 77 70 63 64 53 64
157 156 144 139 127 126 124 124 124 114 92 80 88 102 93 91 88 88 89 99 101 103 103 105 101 100 91 88 86 82 78 65 57 68 77 77 71 69 71 70 70 68 60
167 160 151 152 139 133 136 137 129 120 102 86 97 112 107 105 117 103 95 103 101 102 101 104 106 100 95 94 92 87 81 81 61 52 65 71 66 60 60 63 74 75 69
166 159 158 155 153 150 148 148 127 102 106 103 101 116 111 114 108 108 98 99 103 107 107 106 105 100 102 101 97 89 81 81 77 52 64 67 62 61 55 54 59 71 70
168 164 162 163 163 155 156 147 120 93 126 121 122 128 123 123 118 107 111 106 109 111 112 105 104 105 104 101 101 97 88 80 60 75 72 69 60 57 46 47 50 53 50
170 169 167 169 169 166 162 153 124 86 122 120 124 135 126 126 124 122 122 112 118 116 111 107 108 105 107 106 102 92 75 56 50 73 76 71 55 40 47 43 43 46 42
173 176 176 170 174 175 170 162 143 117 131 123 125 134 129 129 135 132 130 129 123 118 118 115 110 111 111 107 103 90 73 71 50 56 56 65 59 48 44 35 41 35 27
195 180 183 176 174 182 180 173 156 125 137 137 138 146 145 146 144 146 140 138 135 131 124 117 115 115 114 109 106 100 86 77 52 41 38 37 51 32 26 26 29 22 34
207 194 190 190 179 182 182 189 174 167 160 157 151 157 163 153 157 162 147 146 143 137 131 123 123 121 116 111 108 108 104 87 100 28 17 25 25 27 25 24 22 22 35
208 196 199 196 197 188 183 190 194 203 179 165 162 162 167 168 153 168 169 162 152 149 134 134 134 132 121 115 111 113 103 93 68 3 7 12 11 11 12 15 6 8 27
211 205 195 200 200 202 199 195 204 216 203 182 180 175 176 184 185 179 181 176 165 164 158 155 153 146 136 131 118 108 89 54 354 347 346 355 357 357 1 3 0 19 70
206 202 197 201 203 204 209 206 209 210 210 204 195 195 194 195 198 192 194 194 187 189 183 184 182 183 183 182 156 107 337 353 316 329 339 341 344 345 348 353 1 34 23
216 204 202 206 205 200 208 212 213 216 219 212 206 208 207 203 208 205 207 208 209 207 206 206 209 218 230 245 255 311 312 328 299 313 321 328 333 334 335 339 348 359 313
214 215 211 212 214 201 208 213 216 222 227 224 214 213 223 219 219 217 221 220 222 221 221 221 225 238 247 269 279 290 297 302 301 302 308 314 324 324 323 323 331 341 310
216 219 213 216 215 209 208 214 215 222 228 225 218 213 226 232 231 231 225 227 227 228 232 229 233 245 259 262 262 277 293 300 303 300 305 313 318 316 314 309 318 320 309
215 218 218 216 219 214 219 219 224 224 226 233 234 227 227 234 235 236 234 232 230 229 234 237 243 252 257 263 271 287 295 299 306 311 312 313 312 311 308 298 299 300 303
229 221 223 221 218 220 223 228 226 228 233 236 235 232 232 234 235 235 238 241 239 239 239 240 244 252 259 269 277 280 289 297 308 317 320 313 310 318 315 295 298 294 294
230 229 228 226 224 223 223 225 229 228 234 238 237 235 235 236 238 238 239 241 241 240 242 242 244 251 257 262 268 274 284 292 301 309 312 313 308 323 319 306 293 293 295
235 231 233 231 228 228 226 228 229 232 235 237 236 238 239 238 238 241 242 242 242 241 241 243 246 250 254 259 267 273 279 287 293 301 304 302 292 320 325 316 310 298 295
240 235 238 239 234 230 229 229 229 231 234 236 238 238 240 240 238 241 241 241 242 241 243 244 245 248 253 259 263 268 275 285 287 290 282 278 273 294 300 294 299 302 297
241 235 239 240 238 232 229 227 227 230 233 236 237 238 239 240 239 240 241 241 243 245 247 249 248 248 252 255 258 265 273 277 284 269 252 235 278 276 287 292 299 303 303
247 240 239 243 244 239 235 234 234 236 239 242 243 240 240 241 241 240 242 243 245 247 245 244 245 248 250 248 253 264 278 281 283 251 225 254 262 285 284 303 306 306 304
247 239 239 247 247 245 241 237 235 236 240 239 240 242 242 242 242 243 244 244 245 247 246 248 248 248 253 251 250 248 243 249 254 253 237 230 247 264 276 299 298 299 302
252 246 243 244 249 251 246 241 238 239 239 244 245 246 246 246 245 245 246 245 246 246 246 248 249 250 252 251 250 249 251 253 262 278 258 257 266 270 295 297 298 295 290
255 248 246 244 246 251 248 248 245 241 245 247 248 249 249 249 249 248 247 246 246 245 247 249 249 248 251 253 252 255 254 248 252 252 273 272 274 279 284 291 292 283 284
256 256 251 245 245 248 252 249 246 246 246 245 246 249 251 249 249 247 246 246 246 248 248 250 252 251 251 253 256 252 251 245 243 242 255 268 276 282 279 277 273 282 284